Time[GMT],current_u[cm/s](10m),current_v[cm/s](10m),current_u[cm/s](14m),current_v[cm/s](14m),current_u[cm/s](18m),current_v[cm/s](18m),current_u[cm/s](22m),current_v[cm/s](22m),current_u[cm/s](26m),current_v[cm/s](26m),current_u[cm/s](30m),current_v[cm/s](30m),current_u[cm/s](34m),current_v[cm/s](34m),current_u[cm/s](38m),current_v[cm/s](38m),current_u[cm/s](42m),current_v[cm/s](42m),current_u[cm/s](46m),current_v[cm/s](46m),current_u[cm/s](50m),current_v[cm/s](50m),current_u[cm/s](54m),current_v[cm/s](54m),current_u[cm/s](58m),current_v[cm/s](58m),current_u[cm/s](62m),current_v[cm/s](62m),current_u[cm/s](66m),current_v[cm/s](66m),current_u[cm/s](70m),current_v[cm/s](70m),current_u[cm/s](74m),current_v[cm/s](74m),current_u[cm/s](78m),current_v[cm/s](78m),current_u[cm/s](82m),current_v[cm/s](82m),current_u[cm/s](86m),current_v[cm/s](86m),current_u[cm/s](90m),current_v[cm/s](90m),current_u[cm/s](94m),current_v[cm/s](94m),current_u[cm/s](98m),current_v[cm/s](98m),current_u[cm/s](102m),current_v[cm/s](102m),current_u[cm/s](106m),current_v[cm/s](106m),current_u[cm/s](110m),current_v[cm/s](110m),current_u[cm/s](114m),current_v[cm/s](114m),current_u[cm/s](118m),current_v[cm/s](118m),current_u[cm/s](122m),current_v[cm/s](122m),current_u[cm/s](126m),current_v[cm/s](126m)
2007-09-21 21:00,4.68,-0.20,8.34,-0.83,8.83,-1.73,0.52,-0.99,-8.91,2.33,-6.51,4.03,-3.37,4.70,-3.72,4.49,-3.84,9.17,-1.71,11.73,0.69,13.43,-1.49,15.05,-5.22,15.23,-6.34,12.79,-3.74,10.88,-3.65,14.89,-6.29,17.94,-8.33,18.45,-9.33,17.61,-9.63,16.57,-12.04,17.91,-13.32,19.29,-13.00,17.61,-12.72,17.06,-12.53,15.45,-13.48,15.15,-12.84,15.77,-14.92,15.74,-15.38,17.17,-15.26,18.15
2007-09-21 22:00,-0.08,-1.07,1.67,-3.98,4.81,-5.61,1.50,-2.78,-8.10,3.42,-9.69,5.12,-5.26,5.37,-3.72,0.82,-5.17,-1.21,-5.50,0.47,-2.95,5.05,0.91,5.11,4.19,6.67,3.73,7.47,0.66,9.22,-5.57,9.36,-7.53,5.59,-5.79,5.41,-4.56,9.47,-5.04,12.99,-6.67,13.83,-8.13,11.49,-10.49,10.01,-12.82,10.74,-13.95,11.33,-13.71,10.57,-13.41,9.61,-13.84,8.64,-16.16,9.69,-18.29,9.12
2007-09-21 23:00,3.67,-15.62,3.84,-18.50,5.55,-16.60,0.45,-7.41,0.44,-5.73,0.44,-7.72,-2.16,-10.43,-2.72,-9.67,-1.03,-9.03,1.71,-9.42,5.67,-11.00,6.37,-8.90,3.86,-5.60,-1.53,-4.47,-4.11,-5.91,-2.81,-7.39,-0.36,-6.51,0.54,-4.03,-2.73,-0.34,-5.55,1.29,-5.88,0.35,-7.58,0.44,-9.53,2.97,-10.69,3.65,-10.39,3.02,-12.46,3.94,-13.78,2.47,-13.87,3.07,-13.67,5.13,-14.60,4.73
2007-09-22 00:00,-0.37,-18.78,-2.90,-22.41,-4.74,-28.55,-5.79,-25.52,-4.96,-17.19,-4.69,-6.09,-5.77,-2.97,-9.70,-3.16,-7.71,-5.16,-3.44,-9.37,-2.61,-11.00,-4.87,-11.50,-5.92,-14.14,-7.72,-19.42,-8.82,-23.23,-7.52,-22.71,-5.67,-19.93,-3.19,-15.48,-3.48,-11.58,-5.47,-7.91,-7.41,-6.11,-7.70,-6.52,-8.32,-6.19,-9.74,-4.02,-10.02,-1.80,-10.67,0.93,-11.01,1.67,-10.74,0.81,-10.90,0.97,-10.60,1.37
2007-09-22 01:00,7.78,-13.69,5.03,-17.29,-0.35,-25.17,-1.77,-23.00,1.80,-15.68,2.91,-15.23,3.01,-19.18,1.66,-20.55,-2.55,-18.84,-1.60,-16.55,1.78,-18.63,3.13,-21.24,3.94,-20.46,2.58,-16.49,-0.32,-15.93,-4.50,-15.99,-5.15,-16.93,-2.75,-15.55,-0.08,-12.40,0.68,-10.48,0.95,-11.65,1.05,-12.98,-0.48,-12.11,-0.24,-10.88,-1.36,-9.66,-1.63,-8.80,-0.77,-8.21,-1.78,-8.32,-3.02,-8.40,-3.46,-8.64
2007-09-22 02:00,10.26,-26.54,7.56,-28.97,3.29,-30.73,-0.07,-27.70,3.09,-23.77,10.95,-16.78,11.66,-14.36,1.79,-16.32,-2.64,-14.57,-3.65,-12.69,-0.52,-12.64,-1.49,-15.57,-2.13,-21.85,0.69,-25.79,3.79,-23.34,2.59,-17.53,-0.37,-15.11,-3.10,-15.45,-6.14,-15.78,-1.93,-15.81,1.73,-14.45,2.84,-12.32,2.10,-12.97,1.77,-15.27,1.99,-13.63,1.98,-10.28,1.24,-9.26,2.20,-8.32,3.38,-7.74,3.31,-8.18
2007-09-22 03:00,-5.13,-25.63,-7.75,-24.99,-9.70,-24.45,-11.77,-23.53,-11.95,-20.96,-6.26,-21.37,0.17,-20.50,-0.31,-20.96,-5.87,-16.95,-9.91,-12.14,-8.46,-10.74,-5.10,-12.41,-3.62,-14.46,-5.80,-16.51,-6.31,-20.55,-6.34,-22.45,-6.00,-20.87,-6.41,-18.90,-8.48,-17.98,-11.75,-16.60,-14.14,-17.35,-12.50,-19.56,-8.92,-19.27,-5.12,-17.34,-1.40,-16.17,-0.47,-15.46,-1.63,-14.77,-1.70,-12.91,-0.91,-11.40,0.47,-9.81
2007-09-22 04:00,5.08,-18.43,3.76,-17.90,2.83,-16.62,1.46,-15.27,-1.85,-12.75,-0.75,-7.26,4.08,-9.93,0.32,-9.34,-2.97,-3.56,-2.99,-0.84,-2.02,-1.58,-0.98,-3.56,-2.78,-5.49,-2.77,-8.84,-3.96,-12.05,-4.73,-10.61,-3.26,-7.95,-4.10,-4.96,-6.57,-3.43,-6.49,-4.35,-4.27,-5.75,-2.53,-5.62,-0.61,-4.39,0.54,-4.03,2.66,-3.46,4.22,-2.76,6.12,-2.79,6.89,-3.91,7.37,-4.07,8.57,-2.23
2007-09-22 05:00,3.04,-17.29,-0.57,-13.81,-2.83,-10.64,-6.09,-4.96,-3.12,-1.40,4.53,-1.72,5.49,1.21,7.65,5.35,8.27,7.01,5.39,6.52,1.78,6.33,0.39,2.43,0.46,-2.79,0.79,-4.16,0.12,-2.06,0.96,0.93,1.38,5.26,0.05,6.83,-2.35,7.12,-3.55,3.60,-2.05,2.18,0.38,1.80,2.78,1.82,4.17,1.42,5.68,2.94,7.06,2.23,8.14,2.46,9.38,3.17,8.68,2.74,6.87,2.48
2007-09-22 06:00,6.88,6.78,6.68,8.40,4.79,10.74,3.23,16.01,4.28,16.03,4.53,13.91,5.04,13.96,5.32,16.04,5.28,17.18,3.71,16.16,0.47,15.46,-3.54,13.56,-5.13,10.96,-6.12,10.44,-7.19,10.84,-7.02,11.63,-6.17,15.25,-6.89,17.54,-8.51,17.34,-8.37,16.23,-6.33,15.09,-4.14,13.79,-1.30,13.43,-0.55,12.72,0.54,11.91,1.79,10.95,3.92,11.51,4.99,11.11,5.56,11.29,5.41,11.46
2007-09-22 07:00,10.44,5.81,10.44,7.80,11.29,11.42,12.62,15.51,11.10,15.35,10.01,16.47,11.46,18.19,8.18,18.62,4.70,18.68,2.66,17.51,1.05,17.63,0.83,17.67,1.82,20.18,-0.97,21.71,-4.97,22.76,-5.11,22.19,-3.87,20.59,-1.93,19.10,-1.95,17.84,-3.60,17.74,-3.84,18.50,-1.89,17.65,0.49,16.41,1.65,16.04,3.12,16.71,2.50,15.68,2.17,16.41,1.90,15.91,1.37,16.27,1.60,16.55
2007-09-22 08:00,0.75,15.23,1.95,17.08,3.63,23.06,6.85,26.17,10.37,26.65,10.40,24.88,10.44,19.44,8.01,16.16,7.36,16.58,7.38,16.17,3.67,17.62,0.25,19.16,-0.62,19.94,1.00,20.45,2.35,21.82,-1.03,24.21,-5.42,24.50,-4.71,21.27,-1.45,19.89,-1.70,19.70,-4.67,20.13,-7.80,21.76,-9.29,22.13,-6.00,19.71,-2.40,17.91,-0.93,16.90,-1.33,17.51,-1.02,18.87,-1.58,19.63,-0.73,19.27
2007-09-22 09:00,2.93,1.34,5.37,3.26,8.26,9.73,8.76,11.78,6.17,12.01,5.36,14.27,7.71,14.80,6.73,15.23,3.82,18.82,0.42,23.62,-1.92,24.04,-0.52,22.59,1.65,23.38,0.58,26.08,-2.47,28.79,-6.28,28.22,-5.96,24.23,-4.12,20.72,-4.28,20.88,-4.45,23.76,-6.58,25.19,-7.42,25.87,-5.92,22.77,-2.32,20.34,-0.37,19.80,-0.67,19.08,-1.34,18.87,-2.29,20.56,-2.63,22.66,-2.81,21.55
2007-09-22 10:00,3.59,12.56,6.45,15.14,12.27,17.29,7.78,13.57,6.05,8.41,7.04,4.95,7.97,5.66,12.24,4.07,9.40,6.11,5.56,12.97,2.04,18.15,0.97,16.87,1.05,19.62,-2.62,21.93,-5.21,18.18,-5.93,16.48,-7.31,19.19,-8.58,22.56,-9.44,23.97,-9.13,23.96,-6.34,22.43,-4.44,20.41,-3.92,19.42,-4.36,19.81,-5.17,20.71,-5.74,22.20,-5.81,22.08,-5.56,21.63,-5.14,20.29,-5.56,17.96
2007-09-22 11:00,3.55,4.37,5.43,3.07,7.63,2.41,8.17,0.69,4.31,-1.37,3.14,-7.29,2.34,-11.74,6.49,-11.27,9.06,-14.44,7.62,-9.55,9.44,-3.00,11.90,2.49,11.87,4.58,8.79,4.03,6.20,3.95,3.23,6.05,-0.50,9.91,-3.67,9.64,-4.59,11.24,-5.75,11.92,-7.46,11.70,-7.35,11.00,-4.85,8.75,-4.81,7.29,-5.02,8.27,-6.63,10.39,-6.91,12.61,-7.45,12.65,-7.22,12.93,-7.42,12.23
2007-09-22 12:00,5.50,-1.83,5.41,-3.85,7.01,-6.60,8.86,-9.47,7.16,-11.06,2.72,-3.97,-0.64,-4.29,-0.31,-5.66,-0.16,-8.13,3.23,-7.26,7.19,-5.18,8.96,-3.15,7.38,-5.12,5.33,-6.60,4.57,-8.52,4.04,-10.15,4.37,-7.22,3.38,-2.08,0.38,1.80,-4.49,3.93,-5.71,8.47,-6.85,10.42,-7.19,11.16,-7.28,9.13,-7.31,5.56,-6.55,5.48,-7.35,6.70,-6.88,8.84,-6.65,9.12,-7.88,9.68
2007-09-22 13:00,8.23,-13.13,6.81,-12.64,5.77,-10.97,6.63,-12.06,6.16,-17.87,0.97,-20.04,0.16,-13.48,-4.56,-15.80,-3.84,-18.09,-3.42,-19.74,-3.70,-15.22,1.16,-14.31,0.77,-14.75,-2.56,-15.49,-2.25,-19.48,0.72,-19.91,2.07,-16.86,1.03,-12.57,-2.02,-9.23,-4.02,-6.20,-3.13,-1.72,-3.63,-1.46,-5.16,-2.26,-7.22,-4.69,-7.82,-6.13,-7.52,-3.74,-7.68,-1.90,-6.61,0.01,-6.13,0.48,-7.38,1.13
2007-09-22 14:00,9.08,-21.15,11.79,-25.43,9.91,-28.44,5.07,-30.38,0.67,-30.40,1.40,-26.72,-3.84,-24.07,-6.44,-22.79,-4.99,-24.75,-5.42,-26.04,-1.28,-25.88,2.79,-26.80,3.85,-25.52,2.77,-22.41,1.75,-20.52,1.70,-20.02,1.05,-18.96,0.62,-17.94,0.41,-15.60,1.95,-14.17,2.78,-13.49,2.81,-12.22,2.33,-12.06,0.31,-13.95,-1.37,-15.95,-3.65,-16.35,-4.67,-14.79,-4.11,-13.56,-2.76,-12.19,-0.72,-9.03
2007-09-22 15:00,-2.69,-19.41,-3.78,-22.58,-1.35,-20.98,-1.91,-20.21,-7.81,-21.13,-15.47,-19.77,-14.56,-20.32,-12.01,-17.10,-12.61,-14.88,-14.20,-13.49,-16.45,-14.00,-18.30,-16.78,-17.16,-16.42,-14.27,-17.60,-9.16,-18.83,-8.14,-20.39,-8.76,-21.43,-8.72,-22.57,-8.73,-23.51,-8.06,-24.98,-4.00,-23.91,-2.92,-22.00,-4.27,-17.70,-2.24,-17.17,0.10,-15.28,-1.23,-15.07,-3.16,-15.57,-3.79,-17.24,-6.30,-17.61,-6.91,-16.33
2007-09-22 16:00,-2.60,-19.69,-1.78,-23.94,0.12,-23.66,-0.61,-21.69,-4.38,-18.37,-8.43,-14.82,-6.62,-12.26,-5.71,-10.82,-5.12,-7.38,-6.93,-5.96,-8.10,-6.22,-6.81,-4.66,-2.62,-5.65,-1.25,-6.68,-4.12,-8.22,-7.12,-10.00,-8.97,-11.11,-8.05,-12.39,-5.45,-14.30,-3.88,-14.96,-2.47,-13.46,-3.06,-10.92,-3.06,-7.26,-1.60,-4.91,0.34,-4.09,0.36,-3.14,-0.97,-3.24,-4.03,-2.53,-3.87,-2.37,-4.44,-2.55
2007-09-22 17:00,-1.13,-14.72,-0.56,-20.52,2.18,-19.23,2.69,-17.19,-0.62,-14.66,0.75,-8.05,4.32,-6.40,5.08,-4.80,1.27,-1.38,-2.87,-1.22,-3.78,-2.97,-0.79,-1.82,2.61,-2.64,6.55,-5.80,9.16,-6.44,7.40,-4.17,2.90,-2.23,-0.11,-2.97,-0.61,-4.70,0.48,-5.19,0.84,-4.98,0.07,-3.54,0.33,-1.37,2.07,-1.24,4.72,0.65,7.45,1.30,6.57,3.12,4.65,4.19,3.70,5.89,3.53,6.77
2007-09-22 18:00,-3.31,-5.13,-2.76,-6.53,-1.06,-6.94,-0.53,-5.62,-3.46,-0.67,-3.82,4.46,-4.06,8.89,-5.40,10.46,-5.00,11.21,-4.44,13.07,-5.33,12.58,-4.63,10.70,-3.21,8.53,-1.41,6.79,-0.96,7.35,-2.74,8.36,-3.82,8.44,-5.58,7.05,-6.85,6.44,-7.64,6.92,-8.15,6.55,-8.08,6.68,-8.01,7.44,-7.06,7.10,-5.81,6.45,-4.16,6.87,-2.45,7.09,-1.95,8.19,-2.43,8.04,-2.36,8.48
2007-09-22 19:00,5.92,0.50,7.72,0.44,6.28,-0.96,4.62,-0.01,2.92,4.70,3.52,8.13,4.22,8.88,4.04,9.45,4.01,11.23,2.24,11.19,0.47,9.16,-1.04,6.28,-1.24,3.28,0.20,2.37,0.34,5.56,-0.58,9.15,-3.67,11.64,-5.55,10.62,-3.86,9.58,-2.13,11.07,-2.32,13.00,-1.90,13.35,-0.71,12.88,0.50,11.38,1.60,10.89,0.48,12.11,-1.46,13.28,-3.56,14.61,-3.90,14.71,-5.44,11.92
2007-09-22 20:00,11.02,8.30,8.85,5.52,8.70,2.32,7.53,0.07,7.62,5.44,9.25,12.56,9.09,14.08,8.67,14.06,8.70,15.64,4.90,13.39,2.50,12.01,2.78,13.14,0.48,18.08,-2.90,18.17,-2.93,16.27,-0.27,16.48,1.41,18.48,0.53,20.93,1.45,21.01,3.99,19.61,5.74,18.38,6.65,18.14,6.02,17.83,2.88,17.79,0.74,18.27,0.92,19.69,2.49,19.03,2.51,17.99,0.26,17.80,-1.66,14.58
2007-09-22 21:00,11.66,8.92,8.16,8.03,6.67,5.46,3.42,8.10,4.85,15.89,4.06,22.04,3.36,25.91,5.64,29.67,5.75,28.66,3.00,24.75,-2.03,23.06,-3.37,24.31,-5.26,26.34,-6.51,27.31,-5.13,26.90,-3.47,27.95,-1.68,28.62,-0.96,28.32,0.78,26.46,2.03,25.49,2.36,24.44,-0.08,25.87,-2.16,26.79,-2.68,27.46,-0.95,28.95,-1.53,30.45,-0.93,30.22,-1.77,28.90,-3.29,29.06,-4.39,27.24
2007-09-22 22:00,9.47,4.56,8.28,3.66,5.38,1.90,1.58,1.65,0.82,7.39,1.31,12.16,0.13,11.57,2.44,11.88,3.18,12.85,-1.35,11.95,-6.35,11.84,-9.13,14.32,-9.91,16.80,-9.57,20.37,-9.59,20.78,-8.94,18.05,-7.08,15.80,-8.77,14.85,-9.45,14.01,-7.16,12.74,-5.68,12.36,-6.56,12.82,-9.49,13.47,-12.05,15.28,-12.15,16.93,-11.35,17.39,-11.19,17.55,-11.60,18.15,-13.25,15.43,-12.53,13.46
2007-09-22 23:00,6.44,-2.48,5.53,-6.23,2.07,-6.90,2.92,-1.28,6.47,2.77,5.14,2.67,4.28,2.71,4.86,3.21,6.87,4.16,5.21,3.43,1.25,4.69,-2.01,6.71,-3.84,8.85,-3.57,9.99,-2.97,12.07,-3.36,13.31,-3.18,12.42,-2.93,10.29,-3.52,9.17,-4.46,7.82,-5.17,7.07,-5.37,6.07,-5.97,5.98,-6.98,6.50,-7.60,8.82,-6.63,10.70,-5.05,12.04,-4.84,11.37,-3.81,10.44,-6.04,7.85
2007-09-23 00:00,14.68,-7.32,4.97,-11.12,1.42,-8.15,6.47,-2.89,7.61,-0.85,3.18,-3.09,4.19,-2.98,8.21,-4.75,11.19,-7.90,9.70,-8.16,6.41,-4.37,3.72,-0.50,1.83,1.84,2.69,4.10,2.02,7.56,2.13,8.22,2.78,7.48,1.39,5.58,-0.38,2.19,-2.36,0.51,-3.56,0.98,-4.18,-0.06,-5.92,-0.50,-8.07,-0.03,-8.29,2.00,-7.49,4.46,-6.52,5.39,-5.63,5.56,-6.06,4.91,-6.04,2.19
2007-09-23 01:00,19.67,-25.46,6.21,-26.67,-0.83,-25.95,2.90,-23.83,6.77,-23.13,5.86,-15.24,2.00,-13.00,4.50,-12.95,7.58,-16.06,6.13,-16.10,6.15,-12.53,7.72,-11.51,11.35,-10.05,12.53,-9.47,12.26,-10.29,11.26,-13.44,9.08,-17.48,7.33,-19.92,6.53,-18.39,4.41,-16.33,3.84,-16.82,3.44,-17.89,2.79,-18.83,2.32,-18.98,0.60,-17.53,-0.49,-14.73,0.06,-11.83,0.57,-9.78,1.78,-8.98,-3.51,-2.16
2007-09-23 02:00,21.86,-34.42,10.99,-29.88,1.50,-26.37,1.81,-25.01,5.99,-26.32,7.20,-27.82,9.63,-25.90,9.13,-23.96,10.27,-23.92,9.63,-22.55,8.65,-16.78,11.09,-12.55,15.25,-11.44,17.94,-11.01,17.25,-12.49,13.03,-15.71,10.16,-16.93,8.33,-16.77,7.05,-17.38,4.94,-18.99,4.09,-18.95,3.99,-17.30,4.02,-15.09,5.94,-14.17,9.35,-14.35,11.51,-13.57,12.04,-13.92,12.47,-12.95,12.98,-12.89,,
2007-09-23 03:00,16.70,-38.98,8.42,-32.68,7.77,-29.95,6.56,-32.43,3.49,-32.03,4.29,-31.57,6.56,-32.11,8.23,-30.75,8.30,-28.00,9.54,-25.93,11.24,-26.34,12.82,-26.68,13.54,-26.66,15.78,-27.11,17.79,-26.48,16.58,-24.97,12.68,-23.26,10.07,-22.30,9.93,-21.19,8.83,-21.02,7.48,-20.39,6.06,-20.21,5.84,-17.87,7.28,-16.79,9.47,-16.41,10.63,-17.41,11.99,-17.40,13.46,-16.10,10.22,-17.12,10.00,-13.10
2007-09-23 04:00,8.99,-40.15,-1.59,-37.20,-6.90,-31.32,-6.55,-27.12,-6.29,-22.95,-4.91,-23.67,-3.34,-26.32,-1.36,-25.28,1.85,-26.47,5.62,-27.48,6.58,-26.86,6.01,-23.38,4.94,-20.67,3.46,-20.61,2.38,-22.53,3.57,-23.62,6.86,-23.42,8.46,-22.50,6.15,-22.18,4.64,-22.02,5.59,-22.04,6.36,-20.85,5.59,-19.73,3.65,-18.88,2.87,-18.07,3.08,-16.43,4.66,-15.10,5.80,-15.05,5.73,-13.19,2.26,-14.49
2007-09-23 05:00,-5.00,-38.69,-11.90,-29.76,-13.06,-21.42,-10.19,-15.58,-7.90,-13.19,-5.78,-15.24,-5.05,-16.90,-2.78,-15.45,-0.57,-15.49,-0.86,-15.58,-0.00,-17.62,1.12,-16.84,1.16,-14.31,-0.02,-10.91,-2.27,-11.10,-2.22,-12.23,-0.50,-15.05,-0.18,-15.05,-2.24,-13.18,-4.65,-11.85,-4.41,-12.61,-2.88,-11.81,-1.63,-10.79,-1.86,-9.39,-2.39,-9.04,-1.18,-8.24,2.06,-7.53,3.59,-7.05,2.40,-8.26,0.34,-8.07
2007-09-23 06:00,8.21,-29.71,1.22,-23.84,-1.07,-9.25,3.99,-1.68,6.91,-2.96,9.92,-8.51,11.41,-10.24,10.78,-7.92,8.98,-5.87,7.40,-7.52,7.99,-8.70,11.03,-8.37,12.69,-5.65,12.63,-3.46,11.63,-4.30,11.84,-7.28,12.60,-8.71,12.25,-7.25,11.09,-4.58,8.99,-3.56,8.54,-3.81,8.93,-3.06,9.36,-2.08,9.54,-0.98,11.41,-0.60,13.44,-0.38,15.61,-0.95,15.77,-0.79,15.05,-0.18,11.88,0.91
2007-09-23 07:00,8.02,-10.79,6.49,-3.30,13.62,5.03,15.73,4.33,14.12,-0.89,14.10,-6.46,13.78,-4.15,10.20,-1.08,6.80,-0.27,6.44,-0.48,7.23,1.02,9.99,3.57,11.85,4.99,11.81,6.45,10.61,6.91,10.17,4.67,9.83,3.41,9.68,1.90,8.68,3.05,7.88,6.26,6.04,7.46,4.61,7.33,5.89,6.26,6.27,6.38,7.24,7.63,6.80,7.70,7.68,7.24,9.75,6.64,9.39,5.48,7.54,2.69
2007-09-23 08:00,16.52,4.47,10.03,8.09,9.78,19.86,17.10,24.26,18.72,19.11,12.41,8.21,7.98,2.31,6.88,6.78,4.13,10.53,3.32,9.75,5.52,10.76,8.72,11.24,8.83,9.91,5.89,12.24,4.05,11.45,3.08,8.52,1.93,5.85,1.31,6.81,0.26,9.83,0.01,11.95,-1.68,13.63,-2.16,12.84,-1.71,13.72,-0.74,14.97,-0.83,17.25,-0.08,18.53,1.71,17.53,3.05,16.27,0.88,16.84,1.67,13.00
2007-09-23 09:00,14.04,7.36,7.99,16.88,15.44,25.52,20.19,21.78,13.04,15.85,5.77,10.63,4.68,17.41,4.01,20.87,3.39,21.51,7.10,22.05,10.07,19.95,9.70,19.10,6.87,21.77,5.24,20.95,3.30,19.81,3.36,21.61,4.28,24.00,3.28,26.51,3.35,28.63,3.53,28.38,2.91,29.02,4.48,30.35,7.03,29.58,9.34,27.90,8.68,26.01,6.82,24.59,2.82,25.32,-0.34,24.01,-0.30,20.56,,
2007-09-23 10:00,13.72,7.68,12.53,19.78,21.25,21.38,22.77,17.56,16.52,16.11,8.69,15.32,7.53,17.68,9.37,21.83,8.82,20.92,9.13,20.91,12.32,20.14,12.29,18.87,10.63,19.81,8.22,21.15,8.18,22.61,8.22,25.14,8.04,27.38,8.08,27.92,9.01,26.64,10.16,25.64,12.09,23.52,12.19,21.88,10.31,21.18,7.12,21.33,3.82,22.80,1.21,23.76,2.28,23.37,1.74,21.41,,,,
2007-09-23 11:00,-7.76,1.33,-5.46,8.66,4.13,6.86,5.57,2.28,2.44,2.24,-6.19,2.35,-11.14,5.08,-9.27,11.44,-11.87,12.72,-11.50,14.51,-7.40,15.49,-6.07,13.92,-8.08,12.34,-10.03,13.51,-11.16,13.78,-11.61,13.54,-10.26,14.59,-8.79,17.57,-8.97,18.46,-9.01,17.61,-8.42,15.07,-7.32,12.90,-8.10,13.07,-10.07,14.65,-11.55,17.01,-15.26,18.15,-14.51,19.75,-13.12,21.34,,,,
2007-09-23 12:00,1.86,7.09,7.26,14.87,12.82,10.23,14.79,-0.68,12.09,-3.42,5.26,-3.06,-3.36,-2.32,-1.46,-0.36,-2.12,2.06,-2.75,3.75,1.76,3.07,0.94,1.66,-3.13,2.26,-2.92,4.95,-6.59,8.93,-6.32,10.07,-3.19,10.11,-1.15,12.95,-1.39,17.39,-2.34,17.72,-4.94,15.01,-6.28,12.60,-7.58,12.08,-8.98,11.85,-9.48,14.10,-10.10,16.74,-11.46,18.40,-8.59,18.26,0.80,14.41,,
2007-09-23 13:00,3.37,-8.69,6.08,2.65,13.35,4.21,11.25,-2.75,3.29,-2.11,-2.10,-2.65,-1.78,-0.35,-2.85,3.40,-1.95,0.54,1.63,-4.83,1.02,-8.90,-0.72,-11.34,-1.04,-11.34,-0.69,-7.14,-1.06,-2.96,-0.39,-0.44,-0.63,0.01,0.53,1.32,3.15,2.98,2.03,4.52,-0.70,5.55,-2.98,5.14,-4.78,3.53,-7.16,3.41,-7.42,4.90,-7.37,7.74,-8.73,9.73,-9.21,9.26,,,,
2007-09-23 14:00,7.86,-12.62,15.66,-17.08,12.03,-24.52,7.57,-26.34,4.35,-18.45,0.24,-10.73,2.11,-6.36,1.04,-1.98,1.06,-4.70,0.19,-9.59,-2.62,-11.31,-1.25,-10.99,-0.62,-10.68,0.68,-8.49,-0.07,-8.10,2.20,-10.31,3.27,-11.03,5.87,-10.31,5.69,-10.06,4.08,-9.93,2.92,-10.93,2.06,-11.51,-0.56,-12.86,-2.80,-12.42,-3.50,-10.85,-3.58,-7.94,-2.84,-5.61,-2.68,-5.46,,,,
2007-09-23 15:00,6.82,-21.97,10.66,-29.14,3.27,-32.00,-4.21,-31.21,-5.52,-28.06,-1.52,-23.13,4.47,-18.51,8.08,-14.65,7.39,-12.14,7.21,-11.88,7.65,-15.94,5.41,-17.17,2.02,-15.72,2.50,-13.58,4.23,-12.09,6.38,-10.26,6.60,-10.61,5.42,-12.55,7.00,-14.57,9.27,-13.43,9.18,-12.83,7.74,-13.92,5.84,-14.20,3.77,-14.96,3.77,-14.96,2.35,-13.10,1.18,-13.05,0.99,-7.45,-2.35,-16.15,,
2007-09-23 16:00,4.59,-36.83,0.18,-48.80,-1.44,-45.65,-8.66,-34.40,-10.11,-26.46,-5.09,-24.78,0.39,-22.84,0.57,-17.12,-0.12,-18.91,-0.68,-22.44,-5.47,-24.90,-7.66,-23.91,-6.35,-18.78,-5.73,-15.75,-5.83,-14.42,-4.55,-13.49,-2.74,-12.61,-1.90,-13.60,-1.44,-16.39,0.88,-18.07,3.30,-16.78,1.82,-16.41,-0.09,-15.02,-2.51,-16.31,-4.24,-17.48,-4.16,-18.40,-6.57,-18.74,-3.74,-16.07,-5.50,-11.17,,
2007-09-23 17:00,-11.86,-25.23,-15.92,-31.97,-17.79,-31.72,-16.20,-33.42,-17.68,-35.04,-19.09,-30.24,-16.08,-20.48,-6.56,-14.44,1.48,-17.67,6.78,-16.84,6.86,-13.77,5.00,-15.20,-1.03,-16.37,-4.21,-15.59,-2.34,-15.21,-3.49,-16.20,-3.95,-15.40,-3.76,-13.35,-1.50,-12.22,-0.26,-14.13,-0.14,-16.19,1.34,-18.56,4.08,-19.58,4.34,-18.76,5.31,-17.83,2.25,-15.44,0.57,-15.76,-1.71,-15.85,1.27,-17.32,8.21,-6.43
2007-09-23 18:00,0.55,-11.05,4.69,-14.88,2.07,-14.55,0.57,-13.77,2.28,-7.88,8.48,-3.62,16.06,-6.05,20.79,-11.06,22.02,-13.29,18.01,-12.57,13.67,-9.43,12.13,-8.55,8.99,-8.91,8.22,-9.78,11.02,-6.70,13.31,-4.30,13.81,-4.56,13.19,-5.91,12.91,-7.67,14.06,-10.35,15.65,-12.05,15.55,-10.09,13.07,-7.52,10.57,-5.58,8.76,-4.16,6.86,-4.13,8.07,-3.33,8.92,-3.69,10.33,-2.51,17.06,-1.23
2007-09-23 19:00,-12.04,-5.05,-9.67,-8.92,-8.66,-7.45,-10.69,-4.00,-13.83,1.62,-15.90,8.51,-10.26,8.93,-0.47,8.14,3.87,2.69,5.24,-2.33,2.59,-1.91,-1.08,-0.24,-2.74,0.71,-4.08,0.29,-2.30,0.64,-0.41,1.97,1.63,1.14,2.74,1.28,0.24,0.91,-1.21,-0.49,-2.64,-2.93,-1.97,-4.40,-2.99,-2.83,-4.22,-0.60,-5.50,0.15,-7.14,0.69,-6.42,1.75,-4.11,1.74,-8.88,-5.42,,
2007-09-23 20:00,-5.12,13.59,-5.82,9.49,-7.00,14.88,-8.34,20.12,-3.36,22.64,0.27,22.10,0.85,20.92,0.44,15.24,-1.65,11.54,-5.18,13.78,-8.03,17.81,-6.84,18.71,-5.43,17.89,-5.34,19.92,-6.87,21.11,-6.43,18.73,-5.52,16.50,-3.76,15.91,-3.59,16.69,-6.18,16.61,-8.67,15.20,-9.45,12.33,-7.96,12.27,-8.08,14.33,-10.11,16.42,-12.13,18.19,-12.22,18.80,-12.67,18.23,-6.46,11.17,,
2007-09-23 21:00,3.95,15.40,0.44,13.56,-2.97,15.42,1.28,18.23,5.73,21.73,8.13,19.44,8.02,14.80,3.56,12.66,0.59,15.08,-0.06,19.80,1.38,22.24,1.22,22.40,1.59,23.57,-0.55,22.69,-1.69,20.33,-2.28,17.53,-3.80,17.36,-6.57,17.85,-8.55,16.81,-8.68,14.88,-7.78,15.69,-7.72,19.48,-7.12,20.93,-5.73,20.84,-5.03,20.96,-3.33,18.87,-5.37,19.70,-26.05,16.43,,,,
2007-09-23 22:00,12.25,12.04,8.27,14.35,2.82,15.99,5.83,16.41,11.81,16.41,15.65,13.22,14.64,9.76,8.09,9.58,8.28,12.99,11.38,15.12,13.41,15.66,11.07,17.44,8.45,15.77,6.13,13.47,5.57,13.60,3.88,14.96,1.41,14.49,-3.44,14.22,-4.64,14.37,-6.20,15.35,-6.31,16.68,-4.87,17.44,-4.20,17.65,-2.07,16.54,0.32,15.93,1.94,14.14,0.80,14.41,0.62,12.99,-1.20,11.78,-1.99,9.65
2007-09-23 23:00,20.37,3.91,9.92,5.12,6.25,7.11,11.16,7.19,11.19,1.43,4.67,-0.84,-4.31,1.37,-4.16,4.88,0.76,7.58,3.15,10.64,2.22,11.92,1.10,11.15,-0.65,12.69,-3.41,14.13,-5.18,13.78,-7.45,16.63,-8.44,17.47,-10.04,16.86,-9.65,17.30,-9.46,17.04,-8.58,16.59,-6.31,16.36,-6.95,16.05,-6.57,16.17,-6.51,15.98,-6.73,13.71,-7.07,12.77,-7.81,11.80,-8.71,10.99,-12.46,7.92
2007-09-24 00:00,21.50,11.29,10.01,12.80,7.98,12.27,12.89,6.68,13.42,-4.99,13.16,-11.47,8.03,-10.16,-1.22,-8.77,-5.80,-4.87,-1.74,-2.12,4.19,1.01,5.37,5.26,3.72,5.16,2.32,2.62,-0.22,2.03,-2.50,3.61,-5.17,6.76,-5.47,9.70,-4.26,10.19,-4.37,11.20,-5.52,12.52,-5.72,14.14,-5.43,14.23,-6.04,13.82,-6.52,13.04,-7.97,11.64,-10.89,10.93,-12.63,9.12,-11.89,8.10,,
2007-09-24 01:00,17.11,-0.06,8.60,7.32,10.16,6.35,7.73,-3.23,-0.20,-10.34,-8.14,-10.43,-10.62,-7.23,-11.72,-4.74,-6.30,-2.62,-0.32,-4.30,5.43,-4.58,7.63,-1.58,6.94,0.93,5.75,-0.60,3.61,-1.80,0.79,-1.85,-1.67,0.31,-4.92,2.96,-7.67,7.02,-9.13,8.34,-9.40,7.52,-8.04,7.22,-7.34,7.65,-7.09,7.52,-5.85,7.59,-6.60,8.30,-7.06,9.41,-8.04,9.52,-8.28,9.97,-13.94,7.98
2007-09-24 02:00,23.88,-24.87,17.20,-15.97,13.85,-11.99,17.33,-15.40,15.18,-19.22,7.69,-19.07,-2.53,-13.27,-8.29,-7.96,-8.16,-6.03,-3.25,-7.00,-1.14,-10.01,1.05,-12.98,6.26,-13.86,7.61,-14.48,6.36,-13.51,4.60,-12.60,3.21,-10.84,0.68,-8.80,0.06,-6.17,-1.54,-5.41,-1.88,-6.67,-0.75,-9.25,0.95,-9.66,1.46,-9.61,1.71,-9.42,0.98,-8.08,-2.04,-8.82,-2.24,-7.52,-2.57,-10.14,-0.09,-5.69
2007-09-24 03:00,9.59,-32.42,10.47,-24.90,12.84,-29.08,5.05,-33.32,-5.30,-35.75,-7.80,-34.44,-6.90,-27.66,-8.37,-19.00,-11.60,-16.76,-9.47,-12.53,-3.94,-14.45,-2.74,-16.91,-3.00,-19.09,-3.33,-22.02,-3.47,-24.58,-2.25,-25.45,-2.59,-23.05,-2.60,-20.01,-2.60,-16.02,-3.35,-11.33,-4.78,-10.11,-5.79,-11.58,-6.11,-11.89,-6.46,-12.10,-5.54,-10.03,-6.40,-8.31,-9.18,-6.46,-8.10,-8.22,-3.67,-9.65,,
2007-09-24 04:00,3.53,-41.14,7.63,-34.19,8.12,-35.40,4.85,-38.32,0.38,-40.46,-5.92,-37.41,-9.74,-30.96,-6.26,-21.06,-4.91,-17.69,-2.13,-17.87,-0.09,-21.00,0.71,-26.51,1.72,-30.39,1.44,-29.85,2.21,-29.29,2.13,-28.37,3.69,-25.68,5.11,-23.87,6.27,-20.57,7.44,-17.26,8.09,-16.01,7.36,-17.70,7.72,-19.48,7.22,-18.90,7.11,-17.89,5.74,-16.22,3.43,-14.54,2.05,-12.15,5.77,-10.97,-3.72,-9.14
2007-09-24 05:00,1.58,-38.61,8.17,-32.23,8.01,-30.71,3.01,-32.50,-1.37,-37.23,-5.94,-34.38,-9.92,-24.73,-5.49,-14.52,-2.30,-9.01,-1.78,-8.32,1.34,-10.90,3.47,-14.32,2.57,-19.11,-0.25,-22.83,-2.12,-23.53,-3.76,-22.99,-3.55,-21.67,-2.00,-19.61,-0.05,-18.79,3.34,-16.56,7.28,-13.43,7.85,-11.26,6.04,-11.52,4.73,-12.66,6.16,-13.89,6.93,-13.33,7.68,-11.73,5.14,-8.97,5.11,-8.56,,
2007-09-24 06:00,-27.74,-38.73,-24.26,-31.14,-14.00,-24.44,-5.68,-24.23,-5.23,-22.31,-8.79,-23.01,-11.34,-22.55,-13.44,-11.58,-10.06,-5.69,-1.70,-3.26,3.51,-0.15,5.49,0.89,8.43,-1.12,7.37,-5.75,5.73,-9.20,2.08,-13.92,-1.82,-14.83,-3.19,-13.17,-2.83,-12.64,-2.41,-11.98,-0.77,-12.20,2.79,-12.85,5.85,-11.58,9.00,-10.27,9.61,-9.87,10.71,-10.36,10.92,-11.03,9.69,-11.10,19.68,-20.53,,
2007-09-24 07:00,-12.89,-10.67,-4.76,-8.84,0.64,-9.34,-1.21,-8.14,-7.63,-6.39,-10.20,2.76,-8.84,10.42,1.16,9.28,9.07,11.46,11.58,12.15,12.33,7.45,9.36,3.58,5.25,0.29,0.15,-0.48,-3.46,1.01,-3.04,3.34,-1.62,5.47,0.44,3.91,4.07,1.39,6.03,1.17,9.05,0.55,12.07,0.97,13.83,0.69,14.74,-0.18,14.26,-0.01,12.61,-0.74,12.02,0.12,7.72,4.11,6.58,1.76,,
2007-09-24 08:00,-10.22,9.47,-1.72,9.10,3.97,8.70,1.49,9.91,-3.44,12.23,-2.80,16.21,-1.71,23.37,5.31,21.07,13.13,19.87,15.21,21.26,13.33,16.58,8.92,13.93,3.14,14.31,2.55,16.53,2.81,17.35,3.36,16.26,2.51,14.32,3.75,12.72,5.71,12.49,8.02,12.49,10.04,10.72,12.81,9.91,13.31,11.33,12.04,13.02,10.30,12.89,9.73,12.71,6.58,11.72,2.37,15.43,-1.98,4.62,,
2007-09-24 09:00,-12.34,40.46,-5.80,36.02,-4.93,29.59,-3.09,25.76,-5.37,29.34,-10.40,33.31,-8.76,37.08,-2.61,35.56,4.20,32.25,10.53,29.11,8.76,28.76,4.06,27.70,0.22,28.90,-0.61,28.22,-0.51,26.89,0.34,28.52,-0.73,30.91,-0.66,29.04,-0.63,27.59,0.63,27.25,2.77,24.15,5.14,20.60,5.65,16.99,6.32,17.20,4.62,19.60,5.00,19.72,2.19,25.65,5.89,15.91,,,,